Hourly Data Report for October 16, 2013

All times are specified in Local Standard Time (LST). Add 1 hour to adjust for Daylight Saving Time where and when it is observed.

FREDERICTON
NEW BRUNSWICK

45°52'08.000" N
66°32'14.000" W
20.70 m
8101505
71700
YFC

Download Data

Hourly Data (October 2013)
Hourly Data Report for October 16, 2013
Temp Definition
°C
Dew Point Temp Definition
°C
Rel Hum Definition
%
Wind Dir Definition
10's deg

Wind Spd Definition
km/h
Visibility Definition
km
Stn Press Definition
kPa
Hmdx Definition


Wind Chill Definition


Weather Definition


TIME
00:00 Legend Double Dagger 5.9 4.4 90 3 8 16.1 102.20     LegendNANA
01:00 Legend Double Dagger 5.1 4.4 95 32 8 16.1 102.20     LegendNANA
02:00 Legend Double Dagger 6.6 5.7 94 LegendMM 4 16.1 102.18     LegendNANA
03:00 Legend Double Dagger 6.2 5.2 93 3 5 16.1 102.11     LegendNANA
04:00 Legend Double Dagger 4.8 4.4 97   0 16.1 102.13     LegendNANA
05:00 Legend Double Dagger 6.4 6.0 97 35 8 16.1 102.11     LegendNANA
06:00 Legend Double Dagger 6.9 6.3 96 33 5 16.1 102.11     LegendNANA
07:00 Legend Double Dagger 7.1 6.4 95 33 5 16.1 102.15     LegendNANA
08:00 Legend Double Dagger 8.8 7.7 93 4 5 16.1 102.15     LegendNANA
09:00 Legend Double Dagger 10.2 8.7 90 7 11 16.1 102.11     LegendNANA
10:00 Legend Double Dagger 11.4 9.3 87 7 8 16.1 102.07     LegendNANA
11:00 Legend Double Dagger 12.8 9.8 82 12 17 16.1 101.98     LegendNANA
12:00 Legend Double Dagger 13.7 9.9 78 16 15 16.1 101.90     LegendNANA
13:00 Legend Double Dagger 14.2 10.0 76 14 11 16.1 101.80     LegendNANA
14:00 Legend Double Dagger 15.0 10.2 73 15 17 16.1 101.70     LegendNANA
15:00 Legend Double Dagger 15.1 10.4 73 13 9 16.1 101.68     LegendNANA
16:00 Legend Double Dagger 14.9 10.4 74 16 17 16.1 101.59     LegendNANA
17:00 Legend Double Dagger 13.7 11.5 87 11 11 11.3 101.53     LegendNANA
18:00 Legend Double Dagger 12.5 11.9 96 9 4 4.8 101.53     LegendNANA
19:00 Legend Double Dagger 12.5 11.9 96 7 8 6.4 101.41     LegendNANA
20:00 Legend Double Dagger 12.5 12.0 97 8 5 4.0 101.36     LegendNANA
21:00 Legend Double Dagger 12.5 12.2 98 3 9 1.6 101.27     LegendNANA
22:00 Legend Double Dagger 12.6 12.3 98 6 9 2.0 101.16     LegendNANA
23:00 Legend Double Dagger 12.7 12.4 98 4 5 2.4 101.06     LegendNANA

Notes on Data Quality.

Legend

  • E = Estimated
  • M = Missing
  • NA = Not Available
  • ‡ = Partner data that is not subject to review by the National Climate Archives
Date modified: